Flag for U.S.A. Weather past 2 weeks in Detroit, Michigan, U.S.A.

Now
72 °F

Sunny.


Feels Like: 77 °F
Forecast: 46 / 69 °F
Wind: 3 mph from North

Location: Detroit City Airport

Current Time: Sep 23, 2014 at 5:24:51 PM

Latest Report: Sep 23, 2014 at 4:53 PM


Visibility: 10 mi

Pressure: 30.31 "Hg

Humidity: 44%

Dew point: 49 °F

Location of DetroitLocation

Historic Weather in Detroit — Graph

°F

Detroit temperature yesterday

Maximum temperature yesterday: 63 °F (at 4:53 PM)
Minimum temperature yesterday: 51 °F (at 2:53 AM)
Average temperature yesterday: 55 °F

Past Weeks' High & Low Weather Summary

 TemperatureHumidityPressure
High80 °F (Sep 20, 2:53 PM)97% (Sep 9, 1:53 AM)30.37 "Hg (Sep 9, 1:53 AM)
Low44 °F (Sep 14, 6:53 AM)35% (Sep 17, 4:53 PM)29.60 "Hg (Sep 21, 6:53 AM)
Average60 °F68%30.09 "Hg
* Reported Sep 8 3:53 PM — Sep 23 3:53 PM, Detroit, Weather by CustomWeather, © 2014

Note: Actual official high and low records may vary slightly from our data, if they occured in-between our weather recording intervals... More about our weather records

Advertising

Detroit weather history for previous 24 hours

 ConditionsComfort  
Time TempWeatherWind HumidityBarometerVisibility
3:53 PM
Sep 23
70 °FSunny.No wind53%30.32 "Hg10 mi
2:53 PM70 °FSunny.6 mph53%30.33 "Hg10 mi
1:57 PM67 °FSunny.No wind51%30.34 "Hg10 mi
12:53 PM67 °FSunny.6 mph49%30.34 "Hg10 mi
11:53 AM66 °FSunny.7 mph50%30.34 "Hg10 mi
10:53 AM63 °FSunny.8 mph54%30.34 "Hg10 mi
9:53 AM59 °FSunny.5 mph62%30.36 "Hg10 mi
8:53 AM54 °FSunny.3 mph74%30.35 "Hg9 mi
7:53 AM50 °FClear.3 mph80%30.34 "Hg9 mi
6:53 AM49 °FClear.No wind84%30.32 "Hg9 mi
5:53 AM49 °FClear.No wind80%30.30 "Hg9 mi
4:53 AM49 °FClear.No wind80%30.30 "Hg10 mi
3:53 AM50 °FClear.No wind80%30.29 "Hg10 mi
2:53 AM50 °FClear.No wind80%30.29 "Hg10 mi
1:53 AM51 °FClear.No wind74%30.29 "Hg10 mi
12:53 AM52 °FClear.No wind75%30.27 "Hg10 mi
11:53 PM
Sep 22
53 °FClear.No wind74%30.27 "Hg10 mi
10:53 PM54 °FClear.No wind72%30.27 "Hg10 mi
9:53 PM55 °FClear.No wind69%30.26 "Hg10 mi
8:53 PM57 °FClear.No wind62%30.23 "Hg10 mi
7:53 PM60 °FSunny.3 mph49%30.22 "Hg10 mi
6:53 PM63 °FSunny.6 mph43%30.20 "Hg10 mi
5:53 PM63 °FSunny.5 mph41%30.18 "Hg10 mi
Weather by CustomWeather, © 2014

See weather overviewHow to use our weather pages